TimeMST,TemperatureF,Dew PointF,Humidity,Sea Level PressureIn,VisibilityMPH,Wind Direction,Wind SpeedMPH,Gust SpeedMPH,PrecipitationIn,Events,Conditions,WindDirDegrees,DateUTC
12:53 AM,1.0,-4.0,79,30.04,10.0,Calm,Calm,-,N/A,,Clear,0,2014-01-31 07:53:00
1:53 AM,1.9,-2.0,83,30.01,10.0,Calm,Calm,-,N/A,,Clear,0,2014-01-31 08:53:00
2:53 AM,-0.9,-6.0,79,30.01,10.0,Calm,Calm,-,N/A,,Clear,0,2014-01-31 09:53:00
3:53 AM,-0.0,-5.1,79,30.00,10.0,SSW,3.5,-,N/A,,Clear,200,2014-01-31 10:53:00
4:08 AM,-0.9,-6.0,79,29.77,10.0,SSW,3.5,-,N/A,,Scattered Clouds,200,2014-01-31 11:08:00
4:53 AM,-0.0,-4.0,83,29.98,10.0,South,4.6,-,N/A,,Scattered Clouds,170,2014-01-31 11:53:00
5:53 AM,-0.0,-4.0,83,29.97,10.0,West,3.5,-,N/A,,Clear,280,2014-01-31 12:53:00
6:53 AM,-0.0,-4.0,83,29.97,10.0,SSE,3.5,-,N/A,,Mostly Cloudy,160,2014-01-31 13:53:00
7:53 AM,3.0,-0.9,84,29.95,10.0,South,4.6,-,N/A,,Mostly Cloudy,180,2014-01-31 14:53:00
8:53 AM,5.0,1.9,87,29.94,10.0,Calm,Calm,-,N/A,,Mostly Cloudy,0,2014-01-31 15:53:00
9:53 AM,9.0,5.0,84,29.92,10.0,Calm,Calm,-,N/A,,Clear,0,2014-01-31 16:53:00
10:53 AM,12.0,6.1,77,29.91,10.0,South,3.5,-,N/A,,Clear,180,2014-01-31 17:53:00
11:53 AM,17.1,9.0,71,29.89,10.0,Variable,3.5,-,N/A,,Mostly Cloudy,0,2014-01-31 18:53:00
12:53 PM,19.9,12.0,71,29.88,10.0,North,-9999.0,-,N/A,,Overcast,0,2014-01-31 19:53:00
1:53 PM,24.1,16.0,71,29.87,10.0,Calm,Calm,-,N/A,,Overcast,0,2014-01-31 20:53:00
2:53 PM,30.0,16.0,56,29.85,10.0,Calm,Calm,-,0.00,,Overcast,0,2014-01-31 21:53:00
3:53 PM,28.9,17.1,61,29.89,10.0,NNW,17.3,-,N/A,,Overcast,340,2014-01-31 22:53:00
4:53 PM,25.0,18.0,75,29.95,10.0,NW,12.7,-,0.00,,Overcast,320,2014-01-31 23:53:00
5:23 PM,24.1,18.0,77,29.78,8.0,NNW,10.4,-,N/A,,Overcast,340,2014-02-01 00:23:00
5:53 PM,23.0,17.1,78,30.00,10.0,NNW,12.7,-,N/A,,Overcast,340,2014-02-01 00:53:00
6:48 PM,21.2,15.8,80,29.81,10.0,West,9.2,-,N/A,,Overcast,280,2014-02-01 01:48:00
6:53 PM,21.9,15.1,75,30.02,10.0,West,9.2,-,N/A,,Overcast,280,2014-02-01 01:53:00
7:53 PM,21.9,12.9,68,30.02,10.0,NW,13.8,-,N/A,,Overcast,310,2014-02-01 02:53:00
8:53 PM,19.9,9.0,62,30.04,10.0,NW,8.1,-,N/A,,Overcast,320,2014-02-01 03:53:00
9:36 PM,19.0,10.0,68,29.86,5.0,NW,12.7,-,0.00,Snow,Light Snow,310,2014-02-01 04:36:00
9:48 PM,17.6,12.2,79,29.86,2.5,WNW,11.5,-,0.00,Snow,Light Snow,300,2014-02-01 04:48:00
9:53 PM,18.0,12.0,78,30.05,2.5,WNW,12.7,-,0.00,Snow,Light Snow,290,2014-02-01 04:53:00
10:16 PM,17.1,12.0,81,29.86,4.0,West,11.5,-,0.01,Snow,Light Snow,280,2014-02-01 05:16:00
10:45 PM,17.1,12.9,84,29.87,1.8,WNW,10.4,-,0.01,Snow,Light Snow,290,2014-02-01 05:45:00
10:53 PM,17.1,12.9,84,30.05,1.2,West,11.5,-,0.01,Snow,Light Snow,280,2014-02-01 05:53:00
11:04 PM,17.1,12.9,84,29.87,3.0,WNW,9.2,-,0.00,Snow,Light Snow,290,2014-02-01 06:04:00
11:19 PM,17.1,12.9,84,29.87,2.0,WNW,8.1,-,0.00,Snow,Light Snow,300,2014-02-01 06:19:00
11:28 PM,17.1,12.9,84,29.88,1.5,WNW,8.1,-,0.01,Snow,Light Snow,300,2014-02-01 06:28:00
11:46 PM,17.1,12.9,84,29.88,2.5,NW,6.9,-,0.01,Snow,Light Snow,320,2014-02-01 06:46:00
11:53 PM,17.1,12.9,84,30.06,2.5,NW,6.9,-,0.01,Snow,Light Snow,320,2014-02-01 06:53:00